Regional Weather Roundup
Issued by NWS

Home | Current Version | Previous Version | Text Only | Print | Product List | Glossary On
Versions: 1 2 3 4 5 6 7 8 9 10 11 12 13 14 15 16 17 18 19 20 21 22 23 24 25 26 27 28 29 30 31 32 33 34 35 36 37 38 39 40 41 42 43 44 45 46 47 48 49 50
909
ASUS46 KSTO 290815
RWRCA

NORTHERN AND CENTRAL CA REGIONAL WEATHER ROUNDUP
NATIONAL WEATHER SERVICE SACRAMENTO CA
100 AM PDT FRI JUL 29 2016

NOTE: FAIR INDICATES FEW OR NO CLOUDS BELOW 12,000 FEET WITH NO
SIGNIFICANT WEATHER AND/OR OBSTRUCTIONS TO VISIBILITY.

CAZ001-003-290900-
NORTHWEST AREA

CITY           SKY/WX    TMP DP  RH WIND       PRES   REMARKS
CRESCENT CITY  CLOUDY    54  52  93 CALM      29.88S FOG
UKIAH          CLEAR     72  52  49 CALM      29.84S
$$

CAZ006-505>513-290900-
BAY AREA

CITY           SKY/WX    TMP DP  RH WIND       PRES   REMARKS
SANTA ROSA     CLEAR     52  50  93 S3        29.86F
SAN RAFAEL     N/A       59  MM  MM MISG
NAPA           CLEAR     58  53  84 W3        29.85F
CONCORD        PTCLDY    65  53  65 NW8       29.82F
OAKLAND CITY   N/A       66  MM  MM MISG
OAKLAND        PTCLDY    58  55  90 NW6       29.87F
SAN FRAN CITY  N/A       53  MM  99 MISG
SAN FRAN ARPT  PTCLDY    55  51  86 W14       29.86F
LIVERMORE      CLEAR     71  49  45 W6        29.83S
HAYWARD        CLEAR     59  51  75 NW5       29.86F
REDWOOD CITY   N/A       60  MM  81 MISG
MOFFETT ARPT   CLEAR     63  56  78 W5        29.87F
SAN JOSE ARPT  CLEAR     64  57  78 NW6       29.86F
$$
CAZ034-037-514>518-290900-
CENTRAL COAST

CITY           SKY/WX    TMP DP  RH WIND       PRES   REMARKS
WATSONVILLE    CLOUDY    53  53 100 CALM      29.89S FOG
SALINAS        CLOUDY    55  53  93 W6        29.88F FOG
MONTEREY       CLOUDY    54  53  97 CALM      29.89F
SAN LUIS OBISP CLOUDY    57  54  89 NW5       29.87F
SANTA MARIA    CLOUDY    56  55  97 CALM      29.88F FOG
$$
CAZ015-016-290900-
NORTHERN SACRAMENTO VALLEY

CITY           SKY/WX    TMP DP  RH WIND       PRES   REMARKS
REDDING        CLEAR     84  54  35 N3        29.81R
RED BLUFF      CLEAR     84  65  52 CALM      29.80R
OROVILLE       CLEAR     82  59  45 CALM      29.78F
$$
CAZ016>018-290900-
SOUTHERN SACRAMENTO VALLEY

CITY           SKY/WX    TMP DP  RH WIND       PRES   REMARKS
BEALE AFB      CLEAR     78  50  37 SE2       29.75F
LINCOLN        FAIR      81  41  24 SE6       29.77S
MARYSVILLE     CLEAR     80  51  36 SE5       29.76F
SAC INTL ARPT  CLEAR     74  50  42 SE10      29.76F
MATHER AIRPORT NOT AVBL
DOWNTOWN SAC   N/A       75  MM  MM MISG
SAC EXEC ARPT  CLEAR     73  49  42 SE6       29.77F
VACAVILLE      CLEAR     77  48  35 SW6       29.76F
TRAVIS AFB     CLEAR     64  54  70 SW22      29.75F
$$
CAZ019>021-290900-
SAN JOAQUIN VALLEY

CITY           SKY/WX    TMP DP  RH WIND       PRES   REMARKS
STOCKTON       CLEAR     73  54  51 MISG      29.78S
MODESTO        CLEAR     82  50  32 N6        29.76F
MERCED         CLEAR     75  61  61 CALM      29.77S
LEMOORE        CLEAR     79  46  31 W7        29.78F
FRESNO         CLOUDY    83  55  38 W6        29.79S
HANFORD        CLEAR     83  53  35 N6        29.79S
PORTERVILLE    CLEAR     76  57  51 SE6       29.80F
BAKERSFIELD    CLEAR     88  43  20 CALM      29.80S
$$
CAZ011-012-071-290900-
NORTHERN MOUNTAINS

CITY           SKY/WX    TMP DP  RH WIND       PRES   REMARKS
YREKA          CLEAR     77  49  37 NE8       30.00R
MOUNT SHASTA   CLEAR     68  52  56 NE3       30.05S
ALTURAS        CLEAR     65  40  39 N6        30.10S
$$
CAZ011-012-071-290900-
SIERRA NEVADA MTNS

CITY           SKY/WX    TMP DP  RH WIND       PRES   REMARKS
BLUE CANYON    CLEAR     79  42  26 N3        30.18F
TRUCKEE        CLEAR     54  45  71 CALM      30.25S
TAHOE VLY ARPT CLEAR     60  44  55 CALM      30.25F
MAMMOTH LAKES    N/A     55  48  76 CALM      30.34F
$$




USA.gov is the U.S. government's official web portal to all federal, state and local government web resources and services.